Location: The Saddle
(36.8333°N, 80.3417°W)
Time: 07:05:39
(UTC-05:00)

Vanguard 3 - Pass Details

Date: 09 February 2026
Orbit: 507 x 3205 km, 33.3° (Epoch: 5 March)

Event Time Altitude Azimuth Distance (km) Brightness Sun altitude
Rises 20:33:26 0° 256° (WSW) 3,079 11.1 -32.0°
Reaches altitude 10° 20:36:07 10° 251° (WSW) 1,946 9.8 -32.6°
Enters shadow 20:37:27 18° 245° (WSW) 1,404 8.9 -32.8°
